Location: Abraham Lincoln Continuation High School
(33.9711°N, 117.3662°W)
Time: 10:49:27
(UTC+00:00)

X-37B - Visible Passes

Search period start: 17 January 2021 00:00
Search period end: 27 January 2021 00:00
Orbit: 384 x 390 km, 45.0° (Epoch: 02 January)

Date Brightness Start Highest point End Pass type
(mag) Time Alt. Az. Time Alt. Az. Time Alt. Az.
17 Jan 2.4 01:48:23 10° S 01:50:48 20° SE 01:52:39 13° E visible
17 Jan 3.7 03:24:12 10° WSW 03:24:57 16° W 03:24:57 16° W visible
18 Jan 0.5 02:25:33 10° WSW 02:28:44 86° NW 02:29:24 53° NE visible
19 Jan 1.3 01:27:17 10° SW 01:30:18 42° SE 01:33:20 10° ENE visible
19 Jan 2.9 03:04:18 10° W 03:06:04 22° NW 03:06:04 22° NW visible
20 Jan 1.5 02:05:22 10° W 02:08:25 42° NNW 02:10:23 19° NE visible
21 Jan 2.8 02:44:37 10° WNW 02:46:52 17° NNW 02:46:57 17° NNW visible
22 Jan 2.3 01:45:28 10° W 01:48:10 25° NNW 01:50:54 10° NE visible
23 Jan 3.0 02:25:05 10° NW 02:26:47 14° N 02:27:40 12° N visible
25 Jan 3.1 02:05:31 10° NNW 02:06:45 12° N 02:07:59 10° NNE visible
26 Jan 3.2 02:44:05 10° NNW 02:44:50 12° N 02:44:50 12° N visible
